This is the latest recevied weather packets stored in our database for station/object WI0K. If no packets are shown the sender has not sent any weather packets the latest 10 day(s).
| Time | Temp. | Humidity | Pressure | Rain* | Wind** | Luminosity | Snow |
|---|---|---|---|---|---|---|---|
| 1788299708 | 30° C | 30% | 1018.1 hPa | 0 mm | - | 696 W/m² | - |
| 1788299407 | 30° C | 26% | 1018.1 hPa | 0 mm | - | 671 W/m² | - |
| 1788299107 | 29.44° C | 27% | 1018.2 hPa | 0 mm | - | 699 W/m² | - |
| 1788298806 | 30° C | 26% | 1018.2 hPa | 0 mm | - | 703 W/m² | - |
| 1788298505 | 30° C | 26% | 1018.2 hPa | 0 mm | - | 731 W/m² | - |
| 1788298204 | 29.44° C | 26% | 1018.3 hPa | 0 mm | - | 808 W/m² | - |
| 1788297903 | 29.44° C | 26% | 1018.3 hPa | 0 mm | - | 884 W/m² | - |
| 1788297602 | 30° C | 28% | 1018.4 hPa | 0 mm | - | 364 W/m² | - |
| 1788297302 | 30° C | 26% | 1018.3 hPa | 0 mm | - | 475 W/m² | - |
| 1788297000 | 30° C | 27% | 1018.4 hPa | 0 mm | - | 809 W/m² | - |
| 1788296700 | 29.44° C | 28% | 1018.5 hPa | 0 mm | - | 828 W/m² | - |
| 1788296399 | 29.44° C | 27% | 1018.5 hPa | 0 mm | - | 825 W/m² | - |
| 1788296098 | 29.44° C | 26% | 1018.6 hPa | 0 mm | - | 836 W/m² | - |
| 1788295796 | 29.44° C | 27% | 1018.6 hPa | 0 mm | - | 836 W/m² | - |
| 1788295496 | 29.44° C | 27% | 1018.8 hPa | 0 mm | - | 866 W/m² | - |
| 1788295195 | 28.89° C | 28% | 1018.8 hPa | 0 mm | - | 834 W/m² | - |
| 1788294894 | 28.89° C | 29% | 1018.9 hPa | 0 mm | - | 917 W/m² | - |
| 1788294593 | 29.44° C | 29% | 1018.9 hPa | 0 mm | - | 155 W/m² | - |
| 1788294292 | 29.44° C | 29% | 1018.9 hPa | 0 mm | - | 857 W/m² | - |
| 1788293991 | 28.89° C | 29% | 1018.9 hPa | 0 mm | - | 862 W/m² | - |
| 1788293690 | 28.89° C | 30% | 1019 hPa | 0 mm | - | 870 W/m² | - |
| 1788293389 | 28.33° C | 31% | 1019.1 hPa | 0 mm | - | 876 W/m² | - |
| 1788293088 | 28.89° C | 29% | 1019.1 hPa | 0 mm | - | 886 W/m² | - |
| 1788292787 | 28.33° C | 30% | 1019.2 hPa | 0 mm | - | 917 W/m² | - |
| 1788292486 | 28.89° C | 30% | 1019.2 hPa | 0 mm | - | 898 W/m² | - |
* Rain latest hour (hover to see other rain measurements)
** Current wind speed in m/s (hover to see current wind gust speed)